星链-37533(STARLINK-37533)

导读

STARLINK-37533(NORAD编号69130)是SpaceX星链(Starlink)星座中的一颗低轨通信卫星,作为星链第二代组网的组成部分,承担全球卫星互联网通信覆盖任务。 该卫星遵循星链第二代标准设计,采用平板构型与霍尔电推进系统,单星重量约数百千克,运行于近地轨道,轨道周期约90余分钟,可提供高速低延迟的宽带互联网接入服务,支持偏远地区通信、应急联网等场景,助力星链完成全球规模的通信星座部署。

Basic Information
目录编号:
69130
目录名称:
STARLINK-37533
国际标识:
2026-110G
轨道中心:
EARTH
卫星名称:
星链-37533
卫星全名:
星链-37533(STARLINK-37533)
卫星状态:
在轨 (已飞行114 天)
发射日期:
2026-05-20 UTC
国别 :
美国 (US)
星等 :
--
This satellite is enrolled in the Space Conjunction Data Service (SCDS) and the current flight risk assessment level is: No High Risk
Orbit Information
数据来源 国际轨道数据
星历时间: 2026-09-11T19:49:36+0800
9小时前
查看轨道信息
半长轴: 6843.658km
偏心率: 0.0001908
轨道倾角: 97.285°
近地点辐角 101.037°
升交点赤经 89.649°
平近点角 259.109°
近地点: 464.215km
远地点: 466.827km
周期: 93.906分钟
每日圈数: 15.334526
Detailed Information
固有亮度:
5
最大亮度:
2.5
卫星平台:
Starlink V1.0
覆盖范围:
全球
运营商:
太空探索技术公司
运营商所在国:
美国
制造商(研发单位):
太空探索技术公司
制造商所在国:
美国
使用方式:
暂无
Satellite Introduction
Starlink 计划是 SpaceX 推出的全球卫星互联网项目,通过发射低轨道卫星,为全球尤其是偏远地区提供高速、低延迟的互联网服务。自 2019 年起,Starlink 已部署数千颗卫星,旨在缩小全球数字鸿沟,推动互联网普及。该项目还为军事、航空等行业提供通信支持,带来广泛经济效益。
2D Orbit Map
3D Orbit Map
Orbit Altitude Analysis Chart
Orbit Inclination Analysis Chart
Orbit Comprehensive Analysis Chart
View Comprehensive Chart
Conjunction Data List
Event ID Objects TCA Miss Dist (km) Collision Risk Probability Collision Risk Index (CRI) Action
CDM_260911-222705-719306-913023
2026-09-11T
22:27:43+0000
0.324 km
远距离
4.397641E-4 高风险 0.88
CDM_260912-114405-866006-913023
2026-09-12T
11:44:04+0000
0.831 km
远距离
3.724392E-5 中风险 0.66
CDM_260912-040206-570206-913021
2026-09-12T
04:02:12+0000
2.190 km
极远距离
2.063528E-6 低风险 0.41
CDM_260914-025605-323206-913021
2026-09-14T
02:56:34+0000
2.375 km
极远距离
1.889657E-6 低风险 0.41
CDM_260912-071605-199506-913022
2026-09-12T
07:16:11+0000
2.522 km
极远距离
1.711568E-6 低风险 0.4
CDM_260909-102304-778706-913021
2026-09-09T
10:23:07+0000
2.382 km
极远距离
1.164558E-6 低风险 0.36
CDM_260913-143305-374406-913021
2026-09-13T
14:33:32+0000
2.894 km
极远距离
9.445101E-7 极低风险 0.35
Miss Distance Evolution Trend with All Objects
Collision Probability Evolution Trend with All Objects